M I D A S
Marine Information and Data Acquisition System
Tripno 1674 of the Zeeleeuw from 2009-04-09 07:16:14 to 2009-04-09 14:23:04
Back to CruiseResearch ActivitiesStationsMapUnderway DataData graphs

EquipmentUnitsComments
TimeDGPSUTC
LatitudeDGPSDM.mWGS84
LongitudeDGPSDM.mWGS84
SpeedMeteo Stationm/sRelative wind speed
DirectionMeteo StationdegRelative wind direction
TemperatureMeteo Stationdeg CelciusAir temperature
PressureMeteo StationPaAtmospheric pressure
HumidityMeteo Station%Relative humidity
Missing or incorrect values are displayed as -999
Metereological data collected by the RV Zeeleeuw from 2009-04-09 07:33:28 to 2009-04-09 14:35:49
Time Latitude Longitude Speed Direction Temperature Pressure Humidity
2009-04-09 07:34 51°13.68 2°55.9 2.5 26 11.9 101300 100
2009-04-09 07:35 51°13.692 2°55.81 2.5 35 11.9 101300 100
2009-04-09 07:36 51°13.691 2°55.743 3.3 25 11.9 101300 100
2009-04-09 07:37 51°13.708 2°55.745 2.5 79 11.9 101300 100
2009-04-09 07:38 51°13.762 2°55.708 1.7 284 12 101300 100
2009-04-09 07:39 51°13.865 2°55.612 1.2 281 12 101300 100
2009-04-09 07:40 51°13.998 2°55.506 2.2 281 12 101300 100
2009-04-09 07:41 51°14.146 2°55.389 2.7 280 12.1 101290 100
2009-04-09 07:42 51°14.277 2°55.23 3.2 284 12.1 101300 100
2009-04-09 07:43 51°14.393 2°55.042 5.5 281 12.1 101300 100
2009-04-09 07:44 51°14.528 2°54.808 6.7 283 12.1 101290 100
2009-04-09 07:45 51°14.659 2°54.561 6.9 281 12 101300 100
2009-04-09 07:46 51°14.774 2°54.293 7.6 281 11.9 101290 100
2009-04-09 07:47 51°14.827 2°53.979 10.7 284 11.9 101290 100
2009-04-09 07:48 51°14.868 2°53.651 10.6 282 11.9 101290 100
2009-04-09 07:49 51°14.937 2°53.332 8.7 280 11.8 101290 100
2009-04-09 07:50 51°15.015 2°53.032 7.3 278 11.8 101290 100
2009-04-09 07:51 51°15.098 2°52.73 8.7 278 11.8 101290 100
2009-04-09 07:52 51°15.185 2°52.429 7.7 282 11.7 101290 100
2009-04-09 07:53 51°15.277 2°52.123 6.9 280 11.7 101290 100
2009-04-09 07:54 51°15.36 2°51.818 9 281 11.6 101290 100
2009-04-09 07:55 51°15.444 2°51.511 7.8 281 11.6 101290 100
2009-04-09 07:56 51°15.528 2°51.202 8.8 281 11.6 101290 100
2009-04-09 07:57 51°15.611 2°50.885 9.8 281 11.5 101290 100
2009-04-09 07:58 51°15.641 2°50.556 8.3 281 11.5 101280 100
2009-04-09 07:59 51°15.658 2°50.218 9.9 280 11.5 101280 100
2009-04-09 08:00 51°15.676 2°49.88 8.4 281 11.4 101280 100
2009-04-09 08:01 51°15.694 2°49.546 7.9 284 11.4 101280 100
2009-04-09 08:02 51°15.711 2°49.213 8 279 11.4 101280 100
2009-04-09 08:03 51°15.727 2°48.88 8.4 282 11.3 101280 100
2009-04-09 08:04 51°15.743 2°48.538 10.9 283 11.3 101280 100
2009-04-09 08:05 51°15.758 2°48.21 10.2 283 11.2 101290 100
2009-04-09 08:06 51°15.773 2°47.861 10 280 11.2 101280 100
2009-04-09 08:07 51°15.789 2°47.517 8.2 280 11.2 101280 98
2009-04-09 08:08 51°15.798 2°47.172 11.1 283 11.1 101280 100
2009-04-09 08:09 51°15.816 2°46.823 8.9 282 11.1 101280 100
2009-04-09 08:10 51°15.835 2°46.488 8.9 280 11.2 101290 100
2009-04-09 08:11 51°15.855 2°46.147 8.6 285 11.1 101280 100
2009-04-09 08:12 51°15.874 2°45.811 10.7 281 11.1 101280 100
2009-04-09 08:13 51°15.893 2°45.477 11.4 285 11.2 101280 100
2009-04-09 08:14 51°15.906 2°45.144 10.1 284 11.2 101280 100
2009-04-09 08:15 51°15.917 2°44.811 10.5 279 11.2 101280 100
2009-04-09 08:16 51°15.939 2°44.481 7.3 280 11.2 101280 100
2009-04-09 08:17 51°16.039 2°44.212 5.9 281 11.1 101290 100
2009-04-09 08:18 51°16.182 2°44 4.3 285 11.1 101290 100
2009-04-09 08:19 51°16.325 2°43.8 4.3 284 11.1 101290 100
2009-04-09 08:20 51°16.473 2°43.598 4.9 282 11.1 101290 100
2009-04-09 08:21 51°16.618 2°43.391 4.5 283 11.1 101290 100
2009-04-09 08:22 51°16.762 2°43.168 4.5 280 11.1 101290 100
2009-04-09 08:23 51°16.884 2°42.917 5.7 286 11 101290 100
2009-04-09 08:24 51°16.989 2°42.634 7.7 280 11 101290 100
2009-04-09 08:25 51°17.081 2°42.326 6.6 281 11 101290 100
2009-04-09 08:26 51°17.14 2°42.003 8 279 11 101280 100
2009-04-09 08:27 51°17.175 2°41.659 8.1 281 11 101280 100
2009-04-09 08:28 51°17.192 2°41.306 8.1 281 10.9 101280 100
2009-04-09 08:29 51°17.211 2°40.945 8.5 282 10.9 101280 100
2009-04-09 08:30 51°17.226 2°40.594 10.3 281 10.9 101280 100
2009-04-09 08:31 51°17.244 2°40.236 10.1 281 10.9 101280 100
2009-04-09 08:32 51°17.265 2°39.874 8.4 283 10.9 101270 100
2009-04-09 08:33 51°17.286 2°39.519 9.9 283 10.9 101280 100
2009-04-09 08:34 51°17.301 2°39.167 8 285 10.9 101270 100
2009-04-09 08:35 51°17.32 2°38.817 8.8 279 10.9 101270 100
2009-04-09 08:36 51°17.337 2°38.458 9.7 280 10.8 101280 100
2009-04-09 08:37 51°17.356 2°38.097 10.3 280 10.8 101280 100
2009-04-09 08:38 51°17.376 2°37.733 7.9 280 10.8 101280 100
2009-04-09 08:39 51°17.394 2°37.383 9.2 285 10.8 101280 100
2009-04-09 08:40 51°17.409 2°37.026 9.2 285 10.7 101280 100
2009-04-09 08:41 51°17.411 2°36.664 10.4 282 10.7 101280 100
2009-04-09 08:42 51°17.407 2°36.301 10 283 10.8 101270 100
2009-04-09 08:43 51°17.411 2°35.937 10.1 284 10.8 101270 100
2009-04-09 08:44 51°17.426 2°35.591 9.3 282 10.8 101280 100
2009-04-09 08:45 51°17.449 2°35.247 9.3 285 10.8 101280 100
2009-04-09 08:46 51°17.483 2°34.91 7.1 279 10.8 101270 100
2009-04-09 08:47 51°17.524 2°34.567 7.6 284 10.8 101270 100
2009-04-09 08:48 51°17.518 2°34.231 10.6 282 10.8 101270 100
2009-04-09 08:49 51°17.401 2°33.949 10 281 10.8 101270 100
2009-04-09 08:50 51°17.226 2°33.738 12.2 284 10.8 101270 100
2009-04-09 08:51 51°17.061 2°33.508 9.8 281 10.8 101260 100
2009-04-09 08:52 51°16.914 2°33.251 9.5 280 10.8 101260 100
2009-04-09 08:53 51°16.774 2°32.993 11.7 286 10.7 101270 100
2009-04-09 08:54 51°16.631 2°32.731 9.3 284 10.7 101270 100
2009-04-09 08:55 51°16.49 2°32.467 11.9 280 10.6 101270 100
2009-04-09 08:56 51°16.349 2°32.202 9.8 278 10.6 101270 100
2009-04-09 08:57 51°16.205 2°31.941 10.5 282 10.6 101270 100
2009-04-09 08:58 51°16.062 2°31.675 11.8 280 10.7 101270 100
2009-04-09 08:59 51°15.92 2°31.408 11.1 281 10.7 101270 100
2009-04-09 09:00 51°15.779 2°31.138 11.2 284 10.7 101280 100
2009-04-09 09:01 51°15.633 2°30.876 11.4 284 10.7 101270 100
2009-04-09 09:02 51°15.448 2°30.687 12 286 10.7 101270 100
2009-04-09 09:03 51°15.255 2°30.534 9.9 282 10.7 101270 100
2009-04-09 09:04 51°15.06 2°30.38 11.8 284 10.7 101270 100
2009-04-09 09:05 51°14.867 2°30.216 9.7 282 10.7 101270 100
2009-04-09 09:06 51°14.676 2°30.056 9.6 282 10.8 101270 100
2009-04-09 09:07 51°14.484 2°29.895 11 284 10.8 101270 100
2009-04-09 09:08 51°14.329 2°29.787 8 283 10.8 101270 100
2009-04-09 09:09 51°14.266 2°29.86 5.1 6 10.8 101280 100
2009-04-09 09:10 51°14.287 2°29.983 5.3 10 10.7 101270 100
2009-04-09 09:11 51°14.329 2°30.101 4.5 17 10.7 101280 100
2009-04-09 09:12 51°14.375 2°30.171 3.3 42 10.7 101280 100
2009-04-09 09:13 51°14.42 2°30.212 3.3 45 10.7 101280 100
2009-04-09 09:14 51°14.465 2°30.248 4 38 10.7 101280 100
2009-04-09 09:15 51°14.489 2°30.273 4.7 38 10.7 101280 100
2009-04-09 09:16 51°14.492 2°30.28 5.6 35 10.8 101280 100
2009-04-09 09:17 51°14.493 2°30.287 5.6 31 10.8 101280 100
2009-04-09 09:18 51°14.487 2°30.274 6.1 33 10.8 101280 100
2009-04-09 09:19 51°14.456 2°30.206 6.7 40 10.8 101290 100
2009-04-09 09:20 51°14.418 2°30.16 6.5 74 10.9 101280 100
2009-04-09 09:21 51°14.448 2°30.161 2.5 76 10.9 101280 100
2009-04-09 09:22 51°14.545 2°30.155 1.5 81 10.9 101280 100
2009-04-09 09:23 51°14.655 2°30.152 2.6 75 11 101290 100
2009-04-09 09:24 51°14.743 2°30.178 3.1 38 11 101280 100
2009-04-09 09:25 51°14.813 2°30.235 4.1 28 11 101280 100
2009-04-09 09:26 51°14.866 2°30.314 4.5 23 10.9 101280 100
2009-04-09 09:27 51°14.92 2°30.391 3.8 32 10.8 101280 100
2009-04-09 09:28 51°14.977 2°30.455 3.4 44 10.8 101280 100
2009-04-09 09:29 51°15.024 2°30.427 4.2 284 10.9 101280 100
2009-04-09 09:30 51°15.023 2°30.347 7.5 279 10.9 101280 100
2009-04-09 09:31 51°14.98 2°30.299 8.1 280 10.9 101270 100
2009-04-09 09:32 51°14.907 2°30.297 7.5 284 11 101260 100
2009-04-09 09:33 51°14.834 2°30.284 7 279 11 101260 100
2009-04-09 09:34 51°14.769 2°30.245 8.2 284 11.1 101260 100
2009-04-09 09:35 51°14.714 2°30.189 6.6 281 11.1 101270 100
2009-04-09 09:36 51°14.657 2°30.132 7.9 281 11.1 101260 100
2009-04-09 09:37 51°14.598 2°30.09 6.6 282 11.1 101260 100
2009-04-09 09:38 51°14.535 2°30.053 6 282 11.1 101260 100
2009-04-09 09:39 51°14.477 2°30.011 6.5 283 11 101260 100
2009-04-09 09:40 51°14.419 2°29.963 7.6 280 11 101260 100
2009-04-09 09:41 51°14.361 2°29.921 7.7 286 11 101260 100
2009-04-09 09:42 51°14.3 2°29.884 7.5 283 11 101260 100
2009-04-09 09:43 51°14.24 2°29.842 7.9 281 10.9 101260 98
2009-04-09 09:44 51°14.185 2°29.791 7.9 285 10.9 101260 98
2009-04-09 09:45 51°14.124 2°29.744 6.3 281 11 101260 99
2009-04-09 09:46 51°14.065 2°29.7 6.9 279 11 101260 99
2009-04-09 09:47 51°14.01 2°29.646 8.6 282 11.1 101260 100
2009-04-09 09:48 51°13.955 2°29.595 8.4 286 11.2 101260 100
2009-04-09 09:49 51°13.904 2°29.538 6.8 280 11.2 101250 100
2009-04-09 09:50 51°13.853 2°29.504 8.4 278 11.3 101250 100
2009-04-09 09:51 51°13.808 2°29.547 6.4 357 11.3 101250 100
2009-04-09 09:52 51°13.806 2°29.643 4.9 27 11.2 101250 99
2009-04-09 09:53 51°13.85 2°29.711 2 79 11.2 101260 99
2009-04-09 09:54 51°13.909 2°29.706 3.2 75 11.2 101270 99
2009-04-09 09:55 51°13.984 2°29.7 1.9 81 11.2 101270 99
2009-04-09 09:56 51°14.061 2°29.752 2.7 39 11.3 101260 99
2009-04-09 09:57 51°14.135 2°29.821 2.9 37 11.2 101270 99
2009-04-09 09:58 51°14.204 2°29.886 3.5 42 11.2 101260 99
2009-04-09 09:59 51°14.265 2°29.932 4 80 11.1 101270 99
2009-04-09 10:00 51°14.321 2°29.974 3.4 75 11.1 101260 99
2009-04-09 10:01 51°14.371 2°30.011 3.1 76 11.1 101260 99
2009-04-09 10:02 51°14.42 2°30.047 3.7 80 11.1 101260 99
2009-04-09 10:03 51°14.471 2°30.084 3.4 75 11.2 101260 99
2009-04-09 10:04 51°14.524 2°30.126 3.6 82 11.1 101260 99
2009-04-09 10:05 51°14.577 2°30.172 3.8 78 11.1 101260 99
2009-04-09 10:06 51°14.631 2°30.215 3.6 79 11.1 101250 99
2009-04-09 10:07 51°14.684 2°30.257 3.6 44 11 101260 99
2009-04-09 10:08 51°14.738 2°30.297 3.3 74 11 101250 99
2009-04-09 10:09 51°14.792 2°30.334 3.1 79 10.9 101250 99
2009-04-09 10:10 51°14.848 2°30.37 3.2 42 10.9 101250 99
2009-04-09 10:11 51°14.903 2°30.414 3.1 41 10.9 101250 99
2009-04-09 10:12 51°14.956 2°30.459 3.1 38 10.9 101250 99
2009-04-09 10:13 51°15.005 2°30.515 3.7 29 10.9 101250 99
2009-04-09 10:14 51°15.051 2°30.596 4.4 20 10.7 101250 99
2009-04-09 10:15 51°15.081 2°30.707 5.5 8 10.8 101250 99
2009-04-09 10:16 51°15.092 2°30.83 5 14 10.8 101240 100
2009-04-09 10:17 51°15.128 2°30.912 3 76 10.8 101250 100
2009-04-09 10:18 51°15.171 2°30.909 3.4 284 10.8 101250 100
2009-04-09 10:19 51°15.168 2°30.848 6.5 285 10.9 101250 100
2009-04-09 10:20 51°15.128 2°30.777 7.1 283 10.8 101240 100
2009-04-09 10:21 51°15.079 2°30.694 6.2 284 10.8 101240 100
2009-04-09 10:22 51°15.026 2°30.614 6.4 280 10.8 101240 100
2009-04-09 10:23 51°14.968 2°30.538 6.6 284 10.8 101240 100
2009-04-09 10:24 51°14.902 2°30.493 7 280 10.8 101240 100
2009-04-09 10:25 51°14.848 2°30.449 7.2 283 10.8 101240 100
2009-04-09 10:26 51°14.797 2°30.407 7.3 285 10.9 101240 100
2009-04-09 10:27 51°14.746 2°30.369 6.2 286 10.9 101230 100
2009-04-09 10:28 51°14.697 2°30.325 7.6 285 10.9 101240 100
2009-04-09 10:29 51°14.643 2°30.291 6.5 279 10.9 101230 100
2009-04-09 10:30 51°14.596 2°30.247 7.8 281 11 101230 100
2009-04-09 10:31 51°14.546 2°30.201 8.5 281 11 101240 100
2009-04-09 10:32 51°14.489 2°30.165 8 284 11.1 101230 100
2009-04-09 10:33 51°14.437 2°30.129 9.2 284 11.1 101230 100
2009-04-09 10:34 51°14.393 2°30.088 9.7 283 11.1 101230 100
2009-04-09 10:35 51°14.347 2°30.054 8.2 281 11.2 101230 100
2009-04-09 10:36 51°14.301 2°30.02 10.1 284 11.3 101220 100
2009-04-09 10:37 51°14.259 2°29.983 10.3 279 11.4 101220 100
2009-04-09 10:38 51°14.215 2°29.95 8.2 280 11.5 101210 100
2009-04-09 10:39 51°14.17 2°29.915 8.3 282 11.6 101210 100
2009-04-09 10:40 51°14.125 2°29.879 9.8 284 11.6 101210 100
2009-04-09 10:41 51°14.079 2°29.843 8.5 285 11.7 101210 100
2009-04-09 10:42 51°14.034 2°29.807 9.4 282 11.6 101210 100
2009-04-09 10:43 51°13.992 2°29.77 9.6 278 11.7 101210 100
2009-04-09 10:44 51°13.948 2°29.742 8 281 11.7 101210 100
2009-04-09 10:45 51°13.897 2°29.804 8.3 351 11.7 101220 99
2009-04-09 10:46 51°13.889 2°29.919 6.9 19 11.6 101210 99
2009-04-09 10:47 51°13.915 2°30.017 5.1 81 11.5 101220 99
2009-04-09 10:48 51°13.956 2°30.066 5.8 80 11.6 101230 99
2009-04-09 10:49 51°13.998 2°30.042 4.3 287 11.6 101230 99
2009-04-09 10:50 51°14.062 2°29.997 4.6 284 11.6 101220 99
2009-04-09 10:51 51°14.118 2°29.956 4.2 75 11.6 101230 99
2009-04-09 10:52 51°14.191 2°29.981 4 78 11.7 101220 99
2009-04-09 10:53 51°14.266 2°30.053 4.1 80 11.8 101220 98
2009-04-09 10:54 51°14.334 2°30.116 4.1 75 11.6 101220 98
2009-04-09 10:55 51°14.396 2°30.163 2.6 78 11.6 101220 97
2009-04-09 10:56 51°14.458 2°30.206 4.4 76 11.8 101220 98
2009-04-09 10:57 51°14.519 2°30.257 4.2 76 11.7 101220 97
2009-04-09 10:58 51°14.579 2°30.301 2.7 79 11.8 101220 97
2009-04-09 10:59 51°14.64 2°30.343 3.1 79 12 101220 98
2009-04-09 11:00 51°14.703 2°30.39 2.8 81 12.2 101220 97
2009-04-09 11:01 51°14.766 2°30.437 2.7 78 12.4 101220 97
2009-04-09 11:02 51°14.829 2°30.485 1.7 80 12.6 101220 96
2009-04-09 11:03 51°14.892 2°30.537 2.4 81 12.8 101220 95
2009-04-09 11:04 51°14.955 2°30.597 3.4 80 12.8 101220 92
2009-04-09 11:05 51°15.015 2°30.668 3.6 40 12.6 101220 91
2009-04-09 11:06 51°15.069 2°30.758 3.9 30 12.2 101220 91
2009-04-09 11:07 51°15.114 2°30.864 4.1 24 11.9 101210 92
2009-04-09 11:08 51°15.148 2°30.98 4.9 17 11.7 101220 93
2009-04-09 11:09 51°15.174 2°31.103 4.4 23 11.5 101220 94
2009-04-09 11:10 51°15.222 2°31.202 2.9 79 11.4 101220 95
2009-04-09 11:11 51°15.276 2°31.227 3.9 284 11.4 101220 96
2009-04-09 11:12 51°15.3 2°31.208 4.9 280 11.4 101220 97
2009-04-09 11:13 51°15.28 2°31.163 7.1 284 11.4 101210 97
2009-04-09 11:14 51°15.23 2°31.08 6.7 280 11.4 101200 97
2009-04-09 11:15 51°15.17 2°30.986 7.7 280 11.4 101200 97
2009-04-09 11:16 51°15.106 2°30.893 8 284 11.4 101200 97
2009-04-09 11:17 51°15.042 2°30.798 6.5 281 11.5 101200 97
2009-04-09 11:18 51°14.978 2°30.705 7.9 280 11.5 101200 97
2009-04-09 11:19 51°14.91 2°30.625 7.6 286 11.5 101200 97
2009-04-09 11:20 51°14.851 2°30.589 5.8 283 11.5 101200 97
2009-04-09 11:21 51°14.802 2°30.558 5.7 279 11.6 101200 97
2009-04-09 11:22 51°14.754 2°30.523 5.8 279 11.6 101200 97
2009-04-09 11:23 51°14.706 2°30.485 6 285 11.7 101200 97
2009-04-09 11:24 51°14.658 2°30.447 6 284 11.7 101200 97
2009-04-09 11:25 51°14.609 2°30.411 5.9 280 11.8 101190 97
2009-04-09 11:26 51°14.555 2°30.386 7 284 11.8 101200 97
2009-04-09 11:27 51°14.497 2°30.36 5.5 279 11.9 101190 97
2009-04-09 11:28 51°14.448 2°30.316 6.5 281 11.9 101190 96
2009-04-09 11:29 51°14.417 2°30.251 6.8 279 11.9 101190 96
2009-04-09 11:30 51°14.373 2°30.199 7.5 281 12 101190 96
2009-04-09 11:31 51°14.308 2°30.15 6.7 284 12 101190 96
2009-04-09 11:32 51°14.242 2°30.096 6.2 279 12.1 101180 95
2009-04-09 11:33 51°14.177 2°30.047 6.2 280 12.1 101180 95
2009-04-09 11:34 51°14.115 2°30.001 6.3 281 12.1 101180 95
2009-04-09 11:35 51°14.057 2°29.954 6.1 306 12.1 101180 95
2009-04-09 11:36 51°13.997 2°29.907 6.3 284 12.2 101180 95
2009-04-09 11:37 51°13.948 2°29.846 7 281 12.2 101180 95
2009-04-09 11:38 51°13.932 2°29.75 6.2 282 12.2 101180 94
2009-04-09 11:39 51°13.892 2°29.649 7.1 284 12.2 101180 94
2009-04-09 11:40 51°13.817 2°29.676 6.8 279 12.1 101180 93
2009-04-09 11:41 51°13.8 2°29.823 4.3 15 12 101170 94
2009-04-09 11:42 51°13.847 2°29.927 1.7 43 11.9 101180 93
2009-04-09 11:43 51°13.913 2°29.962 2.3 281 11.8 101170 94
2009-04-09 11:44 51°13.974 2°29.949 2.2 50 11.9 101170 95
2009-04-09 11:45 51°14.05 2°29.993 1.5 73 12 101170 95
2009-04-09 11:46 51°14.125 2°30.077 3.1 79 12.1 101180 95
2009-04-09 11:47 51°14.199 2°30.141 2.6 79 12.1 101170 95
2009-04-09 11:48 51°14.271 2°30.182 3.4 81 12.4 101160 95
2009-04-09 11:49 51°14.34 2°30.228 2.9 74 12.6 101170 95
2009-04-09 11:50 51°14.411 2°30.3 2.8 32 12.8 101160 95
2009-04-09 11:51 51°14.489 2°30.365 2.7 37 13 101170 94
2009-04-09 11:52 51°14.572 2°30.431 1.8 29 13.1 101170 92
2009-04-09 11:53 51°14.654 2°30.496 2.3 44 13.1 101170 92
2009-04-09 11:54 51°14.732 2°30.56 2 23 13.1 101170 91
2009-04-09 11:55 51°14.809 2°30.619 4.2 1 13 101160 89
2009-04-09 11:56 51°14.88 2°30.67 5.3 24 12.7 101160 90
2009-04-09 11:57 51°14.945 2°30.732 2.4 25 12.6 101170 91
2009-04-09 11:58 51°15.006 2°30.803 4.4 11 12.5 101170 91
2009-04-09 11:59 51°15.061 2°30.898 4.1 11 12.6 101170 92
2009-04-09 12:00 51°15.104 2°31.02 4.5 9 12.5 101170 92
2009-04-09 12:01 51°15.142 2°31.152 4.3 19 12.3 101170 90
2009-04-09 12:02 51°15.208 2°31.245 1.7 76 12.2 101170 91
2009-04-09 12:03 51°15.267 2°31.242 3.7 283 12.2 101170 92
2009-04-09 12:04 51°15.274 2°31.201 4.5 285 12.3 101160 93
2009-04-09 12:05 51°15.225 2°31.161 5.9 283 12.3 101160 94
2009-04-09 12:06 51°15.171 2°31.094 7 281 12.4 101160 93
2009-04-09 12:07 51°15.112 2°31.019 6.6 283 12.4 101160 93
2009-04-09 12:08 51°15.05 2°30.946 6.6 281 12.4 101160 92
2009-04-09 12:09 51°14.994 2°30.863 6.5 279 12.3 101160 92
2009-04-09 12:10 51°14.933 2°30.787 7.1 280 12.3 101150 91
2009-04-09 12:11 51°14.861 2°30.734 7.7 280 12.2 101150 91
2009-04-09 12:12 51°14.799 2°30.689 6.3 279 12.1 101150 90
2009-04-09 12:13 51°14.752 2°30.653 6.1 280 12 101150 91
2009-04-09 12:14 51°14.712 2°30.617 6.1 285 11.9 101150 91
2009-04-09 12:15 51°14.667 2°30.585 7 282 11.8 101150 91
2009-04-09 12:16 51°14.615 2°30.546 7.4 278 11.7 101150 91
2009-04-09 12:17 51°14.56 2°30.5 7.2 283 11.7 101160 91
2009-04-09 12:18 51°14.507 2°30.448 7.7 285 11.6 101160 92
2009-04-09 12:19 51°14.449 2°30.393 6.6 281 11.6 101160 92
2009-04-09 12:20 51°14.386 2°30.341 7.7 284 11.6 101160 92
2009-04-09 12:21 51°14.322 2°30.291 7.5 281 11.5 101160 92
2009-04-09 12:22 51°14.261 2°30.236 8.3 285 11.5 101150 93
2009-04-09 12:23 51°14.199 2°30.186 8.7 280 11.6 101150 93
2009-04-09 12:24 51°14.135 2°30.142 8.7 285 11.7 101150 93
2009-04-09 12:25 51°14.072 2°30.096 9.7 281 11.7 101150 93
2009-04-09 12:26 51°14.009 2°30.049 9.7 280 11.7 101150 93
2009-04-09 12:27 51°13.949 2°29.998 9.1 280 11.7 101140 93
2009-04-09 12:28 51°13.929 2°29.908 8.8 280 11.8 101150 93
2009-04-09 12:29 51°13.946 2°29.802 7.2 281 11.8 101160 93
2009-04-09 12:30 51°13.99 2°29.702 3.6 281 11.8 101160 92
2009-04-09 12:31 51°14.075 2°29.64 3.1 74 11.8 101170 92
2009-04-09 12:32 51°14.182 2°29.633 4.6 80 11.9 101170 94
2009-04-09 12:33 51°14.218 2°29.578 7.1 280 12 101160 93
2009-04-09 12:34 51°14.184 2°29.591 8.3 279 12 101160 92
2009-04-09 12:35 51°14.168 2°29.728 7.8 4 11.9 101160 92
2009-04-09 12:36 51°14.217 2°29.901 5.1 21 11.8 101150 93
2009-04-09 12:37 51°14.294 2°30.019 4.6 32 11.8 101160 93
2009-04-09 12:38 51°14.366 2°30.114 4.4 36 11.7 101160 93
2009-04-09 12:39 51°14.432 2°30.186 4.8 74 11.7 101170 93
2009-04-09 12:40 51°14.493 2°30.231 4.7 74 11.7 101170 94
2009-04-09 12:41 51°14.566 2°30.284 4 37 11.8 101160 94
2009-04-09 12:42 51°14.64 2°30.384 4.9 21 11.7 101160 94
2009-04-09 12:43 51°14.714 2°30.477 3.4 80 11.6 101160 94
2009-04-09 12:44 51°14.778 2°30.469 6.2 279 11.7 101160 95
2009-04-09 12:45 51°14.785 2°30.433 7.5 279 11.7 101160 94
2009-04-09 12:46 51°14.736 2°30.416 8.2 281 11.7 101150 94
2009-04-09 12:47 51°14.67 2°30.361 8.9 285 11.7 101150 94
2009-04-09 12:48 51°14.6 2°30.307 8.9 304 11.7 101150 94
2009-04-09 12:49 51°14.543 2°30.251 8.1 280 11.7 101150 94
2009-04-09 12:50 51°14.492 2°30.21 7.9 283 11.7 101140 94
2009-04-09 12:51 51°14.445 2°30.168 9.2 283 11.8 101140 95
2009-04-09 12:52 51°14.399 2°30.13 9 282 11.9 101140 94
2009-04-09 12:53 51°14.357 2°30.088 8.1 281 11.9 101140 94
2009-04-09 12:54 51°14.321 2°30.061 7.5 283 12 101140 93
2009-04-09 12:55 51°14.301 2°30.063 7.2 284 12 101140 93
2009-04-09 12:56 51°14.297 2°30.089 8.2 279 12 101140 93
2009-04-09 12:57 51°14.301 2°30.123 6.9 282 12 101140 93
2009-04-09 12:58 51°14.304 2°30.156 6.9 283 12 101140 92
2009-04-09 12:59 51°14.283 2°30.244 7.8 357 11.9 101140 92
2009-04-09 13:00 51°14.327 2°30.373 4.7 39 11.9 101140 92
2009-04-09 13:01 51°14.398 2°30.397 4.8 76 11.8 101140 93
2009-04-09 13:02 51°14.441 2°30.338 7.1 280 11.9 101140 93
2009-04-09 13:03 51°14.496 2°30.29 2.5 77 11.9 101140 93
2009-04-09 13:04 51°14.564 2°30.342 5.9 29 12 101140 93
2009-04-09 13:05 51°14.593 2°30.391 6.2 20 11.9 101140 93
2009-04-09 13:06 51°14.617 2°30.43 6.1 20 11.9 101140 92
2009-04-09 13:07 51°14.642 2°30.467 5.9 19 12 101140 93
2009-04-09 13:08 51°14.669 2°30.504 6.3 20 12 101140 93
2009-04-09 13:09 51°14.697 2°30.542 5.5 22 12 101130 92
2009-04-09 13:10 51°14.725 2°30.58 5.6 21 12 101130 92
2009-04-09 13:11 51°14.752 2°30.617 5.5 19 11.9 101130 92
2009-04-09 13:12 51°14.779 2°30.657 5.2 21 11.8 101130 92
2009-04-09 13:13 51°14.809 2°30.737 5.1 4 11.8 101120 92
2009-04-09 13:14 51°14.826 2°30.887 6.5 3 11.7 101120 93
2009-04-09 13:15 51°14.852 2°31.103 8.9 356 11.7 101110 93
2009-04-09 13:16 51°14.859 2°31.339 8.4 353 11.7 101110 93
2009-04-09 13:17 51°14.871 2°31.616 7.9 351 11.6 101110 93
2009-04-09 13:18 51°14.892 2°31.926 8.5 352 11.5 101110 93
2009-04-09 13:19 51°14.91 2°32.24 8.8 351 11.5 101100 94
2009-04-09 13:20 51°14.934 2°32.578 9.3 350 11.4 101100 92
2009-04-09 13:21 51°14.958 2°32.921 9 280 11.5 101100 93
2009-04-09 13:22 51°14.961 2°33.262 10.6 285 11.5 101100 94
2009-04-09 13:23 51°14.922 2°33.597 11.6 280 11.5 101100 94
2009-04-09 13:24 51°14.871 2°33.927 10.9 284 11.6 101100 94
2009-04-09 13:25 51°14.821 2°34.259 10.3 284 11.5 101110 93
2009-04-09 13:26 51°14.773 2°34.591 10.3 287 11.6 101110 94
2009-04-09 13:27 51°14.728 2°34.924 10.6 284 11.6 101100 93
2009-04-09 13:28 51°14.696 2°35.264 10.6 282 11.6 101100 94
2009-04-09 13:29 51°14.666 2°35.607 10.7 284 11.7 101110 94
2009-04-09 13:30 51°14.658 2°35.964 10.6 280 11.7 101110 94
2009-04-09 13:31 51°14.651 2°36.321 10.3 279 11.8 101110 94
2009-04-09 13:32 51°14.639 2°36.668 10.3 280 11.9 101110 93
2009-04-09 13:33 51°14.631 2°37.011 10.1 279 11.9 101100 93
2009-04-09 13:34 51°14.619 2°37.356 10.4 279 11.9 101100 93
2009-04-09 13:35 51°14.599 2°37.701 11 278 12.1 101100 93
2009-04-09 13:36 51°14.582 2°38.046 10.9 282 12.2 101100 92
2009-04-09 13:37 51°14.569 2°38.392 10.5 282 12.2 101100 91
2009-04-09 13:38 51°14.557 2°38.739 11 278 12.3 101100 92
2009-04-09 13:39 51°14.549 2°39.086 10.7 280 12.4 101100 92
2009-04-09 13:40 51°14.54 2°39.431 11 279 12.3 101100 91
2009-04-09 13:41 51°14.521 2°39.773 10.4 283 12.2 101100 91
2009-04-09 13:42 51°14.503 2°40.11 9.4 279 12.2 101100 91
2009-04-09 13:43 51°14.511 2°40.449 10.1 281 12.2 101100 91
2009-04-09 13:44 51°14.528 2°40.789 10.2 348 12.2 101100 92
2009-04-09 13:45 51°14.543 2°41.128 9.7 282 12.3 101100 92
2009-04-09 13:46 51°14.551 2°41.475 9.8 282 12.4 101100 91
2009-04-09 13:47 51°14.555 2°41.81 11.7 350 12.4 101090 92
2009-04-09 13:48 51°14.558 2°42.153 10.4 350 12.4 101090 92
2009-04-09 13:49 51°14.564 2°42.502 11.7 278 12.4 101090 91
2009-04-09 13:50 51°14.57 2°42.845 9.9 350 12.5 101090 92
2009-04-09 13:51 51°14.578 2°43.188 9.9 349 12.6 101080 91
2009-04-09 13:52 51°14.579 2°43.532 9.4 347 12.7 101080 91
2009-04-09 13:53 51°14.585 2°43.876 10.7 347 12.6 101080 91
2009-04-09 13:54 51°14.592 2°44.22 11.7 351 12.6 101080 91
2009-04-09 13:55 51°14.607 2°44.562 11.5 351 12.7 101080 90
2009-04-09 13:56 51°14.619 2°44.904 11 350 12.7 101090 91
2009-04-09 13:57 51°14.631 2°45.242 10.8 352 12.7 101080 90
2009-04-09 13:58 51°14.643 2°45.576 10.5 353 12.7 101090 89
2009-04-09 13:59 51°14.661 2°45.908 9.6 353 12.7 101080 89
2009-04-09 14:00 51°14.68 2°46.242 9.9 349 12.7 101080 89
2009-04-09 14:01 51°14.702 2°46.578 11.6 352 12.8 101070 89
2009-04-09 14:02 51°14.717 2°46.914 11.6 354 12.9 101070 88
2009-04-09 14:03 51°14.724 2°47.251 10.7 353 13 101070 88
2009-04-09 14:04 51°14.736 2°47.589 9.8 353 13.1 101080 89
2009-04-09 14:05 51°14.748 2°47.928 11.1 353 13 101080 88
2009-04-09 14:06 51°14.754 2°48.265 9.7 352 13 101080 89
2009-04-09 14:07 51°14.762 2°48.603 11.2 353 12.9 101080 89
2009-04-09 14:08 51°14.774 2°48.94 10 355 13.1 101070 88
2009-04-09 14:09 51°14.792 2°49.274 10.9 354 13.2 101080 87
2009-04-09 14:10 51°14.807 2°49.61 11.1 354 13.2 101080 87
2009-04-09 14:11 51°14.82 2°49.947 10.6 354 13.2 101080 87
2009-04-09 14:12 51°14.831 2°50.283 11.9 355 13.4 101080 87
2009-04-09 14:13 51°14.84 2°50.618 9.9 355 13.5 101080 85
2009-04-09 14:14 51°14.848 2°50.95 11.3 358 13.5 101070 85
2009-04-09 14:15 51°14.856 2°51.287 11 1 13.4 101080 85
2009-04-09 14:16 51°14.871 2°51.612 10.4 358 13.4 101080 84
2009-04-09 14:17 51°14.881 2°51.942 12.7 356 13.5 101080 84
2009-04-09 14:18 51°14.886 2°52.274 10.7 358 13.5 101080 83
2009-04-09 14:19 51°14.891 2°52.604 9 358 13.7 101080 82
2009-04-09 14:20 51°14.872 2°52.906 10.1 352 13.8 101090 82
2009-04-09 14:21 51°14.822 2°53.19 11.8 353 13.8 101080 82
2009-04-09 14:22 51°14.766 2°53.466 11.4 352 13.9 101080 83
2009-04-09 14:23 51°14.712 2°53.778 11.2 351 14.1 101070 81
2009-04-09 14:24 51°14.646 2°54.091 12.1 348 14.2 101080 81
2009-04-09 14:25 51°14.57 2°54.396 11.6 345 14.3 101070 81
2009-04-09 14:26 51°14.485 2°54.692 12.3 339 14.4 101080 81
2009-04-09 14:27 51°14.387 2°54.971 11.5 335 14.6 101080 79
2009-04-09 14:28 51°14.283 2°55.215 9.7 350 14.7 101090 79
2009-04-09 14:29 51°14.165 2°55.38 8.9 334 14.8 101080 78
2009-04-09 14:30 51°14.027 2°55.485 12.5 331 14.8 101080 78
2009-04-09 14:31 51°13.9 2°55.573 10.2 327 14.8 101080 78
2009-04-09 14:32 51°13.797 2°55.661 8.2 336 14.8 101090 79
2009-04-09 14:33 51°13.718 2°55.791 5.4 340 14.9 101090 79
2009-04-09 14:34 51°13.676 2°55.888 8.1 343 14.9 101090 79
2009-04-09 14:35 51°13.664 2°55.953 8 352 14.8 101090 80